locationName,lineName,date,time,countIn,countOut
�����w�O,�w����,2022/5/1,0:00,1,0
�����w�O,�w����,2022/5/1,1:00,0,0
�����w�O,�w����,2022/5/1,2:00,0,0
�����w�O,�w����,2022/5/1,3:00,0,1
�����w�O,�w����,2022/5/1,4:00,1,3
�����w�O,�w����,2022/5/1,5:00,5,5
�����w�O,�w����,2022/5/1,6:00,35,32
�����w�O,�w����,2022/5/1,7:00,79,114
�����w�O,�w����,2022/5/1,8:00,98,190
�����w�O,�w����,2022/5/1,9:00,174,297
�����w�O,�w����,2022/5/1,10:00,204,406
�����w�O,�w����,2022/5/1,11:00,185,372
�����w�O,�w����,2022/5/1,12:00,242,332
�����w�O,�w����,2022/5/1,13:00,246,291
�����w�O,�w����,2022/5/1,14:00,328,314
�����w�O,�w����,2022/5/1,15:00,348,307
�����w�O,�w����,2022/5/1,16:00,366,283
�����w�O,�w����,2022/5/1,17:00,252,262
�����w�O,�w����,2022/5/1,18:00,216,201
�����w�O,�w����,2022/5/1,19:00,160,183
�����w�O,�w����,2022/5/1,20:00,88,89
�����w�O,�w����,2022/5/1,21:00,39,69
�����w�O,�w����,2022/5/1,22:00,28,45
�����w�O,�w����,2022/5/1,23:00,7,25
�����w�O,�w����,2022/5/2,0:00,2,1
�����w�O,�w����,2022/5/2,1:00,1,0
�����w�O,�w����,2022/5/2,2:00,1,2
�����w�O,�w����,2022/5/2,3:00,0,0
�����w�O,�w����,2022/5/2,4:00,5,4
�����w�O,�w����,2022/5/2,5:00,10,12
�����w�O,�w����,2022/5/2,6:00,77,50
�����w�O,�w����,2022/5/2,7:00,167,163
�����w�O,�w����,2022/5/2,8:00,140,238
�����w�O,�w����,2022/5/2,9:00,166,286
�����w�O,�w����,2022/5/2,10:00,172,322
�����w�O,�w����,2022/5/2,11:00,190,346
�����w�O,�w����,2022/5/2,12:00,220,300
�����w�O,�w����,2022/5/2,13:00,265,292
�����w�O,�w����,2022/5/2,14:00,307,326
�����w�O,�w����,2022/5/2,15:00,249,227
�����w�O,�w����,2022/5/2,16:00,314,288
�����w�O,�w����,2022/5/2,17:00,322,234
�����w�O,�w����,2022/5/2,18:00,258,235
�����w�O,�w����,2022/5/2,19:00,173,207
�����w�O,�w����,2022/5/2,20:00,101,109
�����w�O,�w����,2022/5/2,21:00,63,86
�����w�O,�w����,2022/5/2,22:00,23,48
�����w�O,�w����,2022/5/2,23:00,15,7
�����w�O,�w����,2022/5/3,0:00,0,10
�����w�O,�w����,2022/5/3,1:00,0,0
�����w�O,�w����,2022/5/3,2:00,0,0
�����w�O,�w����,2022/5/3,3:00,1,2
�����w�O,�w����,2022/5/3,4:00,2,1
�����w�O,�w����,2022/5/3,5:00,9,4
�����w�O,�w����,2022/5/3,6:00,48,40
�����w�O,�w����,2022/5/3,7:00,65,79
�����w�O,�w����,2022/5/3,8:00,263,349
�����w�O,�w����,2022/5/3,9:00,175,308
�����w�O,�w����,2022/5/3,10:00,235,440
�����w�O,�w����,2022/5/3,11:00,276,483
�����w�O,�w����,2022/5/3,12:00,227,375
�����w�O,�w����,2022/5/3,13:00,263,332
�����w�O,�w����,2022/5/3,14:00,313,348
�����w�O,�w����,2022/5/3,15:00,396,370
�����w�O,�w����,2022/5/3,16:00,408,371
�����w�O,�w����,2022/5/3,17:00,334,287
�����w�O,�w����,2022/5/3,18:00,263,236
�����w�O,�w����,2022/5/3,19:00,243,254
�����w�O,�w����,2022/5/3,20:00,116,124
�����w�O,�w����,2022/5/3,21:00,65,87
�����w�O,�w����,2022/5/3,22:00,28,56
�����w�O,�w����,2022/5/3,23:00,18,32
�����w�O,�w����,2022/5/4,0:00,1,0
�����w�O,�w����,2022/5/4,1:00,0,0
�����w�O,�w����,2022/5/4,2:00,0,0
�����w�O,�w����,2022/5/4,3:00,0,1
�����w�O,�w����,2022/5/4,4:00,3,1
�����w�O,�w����,2022/5/4,5:00,4,7
�����w�O,�w����,2022/5/4,6:00,30,37
�����w�O,�w����,2022/5/4,7:00,69,98
�����w�O,�w����,2022/5/4,8:00,120,204
�����w�O,�w����,2022/5/4,9:00,178,346
�����w�O,�w����,2022/5/4,10:00,207,435
�����w�O,�w����,2022/5/4,11:00,179,395
�����w�O,�w����,2022/5/4,12:00,245,366
�����w�O,�w����,2022/5/4,13:00,288,343
�����w�O,�w����,2022/5/4,14:00,386,389
�����w�O,�w����,2022/5/4,15:00,378,288
�����w�O,�w����,2022/5/4,16:00,360,313
�����w�O,�w����,2022/5/4,17:00,339,261
�����w�O,�w����,2022/5/4,18:00,302,233
�����w�O,�w����,2022/5/4,19:00,200,234
�����w�O,�w����,2022/5/4,20:00,123,120
�����w�O,�w����,2022/5/4,21:00,53,67
�����w�O,�w����,2022/5/4,22:00,32,52
�����w�O,�w����,2022/5/4,23:00,17,25
�����w�O,�w����,2022/5/5,0:00,0,0
�����w�O,�w����,2022/5/5,1:00,0,0
�����w�O,�w����,2022/5/5,2:00,0,0
�����w�O,�w����,2022/5/5,3:00,0,1
�����w�O,�w����,2022/5/5,4:00,1,1
�����w�O,�w����,2022/5/5,5:00,4,2
�����w�O,�w����,2022/5/5,6:00,18,31
�����w�O,�w����,2022/5/5,7:00,58,75
�����w�O,�w����,2022/5/5,8:00,119,215
�����w�O,�w����,2022/5/5,9:00,216,378
�����w�O,�w����,2022/5/5,10:00,202,397
�����w�O,�w����,2022/5/5,11:00,199,366
�����w�O,�w����,2022/5/5,12:00,250,357
�����w�O,�w����,2022/5/5,13:00,323,332
�����w�O,�w����,2022/5/5,14:00,371,366
�����w�O,�w����,2022/5/5,15:00,334,249
�����w�O,�w����,2022/5/5,16:00,0,0
�����w�O,�w����,2022/5/5,17:00,0,0
�����w�O,�w����,2022/5/5,18:00,0,0
�����w�O,�w����,2022/5/5,19:00,0,0
�����w�O,�w����,2022/5/5,20:00,0,0
�����w�O,�w����,2022/5/5,21:00,0,0
�����w�O,�w����,2022/5/5,22:00,0,0
�����w�O,�w����,2022/5/5,23:00,0,0
�����w�O,�w����,2022/5/6,0:00,0,0
�����w�O,�w����,2022/5/6,1:00,0,0
�����w�O,�w����,2022/5/6,2:00,0,0
�����w�O,�w����,2022/5/6,3:00,0,0
�����w�O,�w����,2022/5/6,4:00,0,0
�����w�O,�w����,2022/5/6,5:00,0,0
�����w�O,�w����,2022/5/6,6:00,0,0
�����w�O,�w����,2022/5/6,7:00,0,0
�����w�O,�w����,2022/5/6,8:00,0,0
�����w�O,�w����,2022/5/6,9:00,0,0
�����w�O,�w����,2022/5/6,10:00,0,0
�����w�O,�w����,2022/5/6,11:00,0,0
�����w�O,�w����,2022/5/6,12:00,0,0
�����w�O,�w����,2022/5/6,13:00,0,0
�����w�O,�w����,2022/5/6,14:00,0,0
�����w�O,�w����,2022/5/6,15:00,0,0
�����w�O,�w����,2022/5/6,16:00,0,0
�����w�O,�w����,2022/5/6,17:00,0,0
�����w�O,�w����,2022/5/6,18:00,0,0
�����w�O,�w����,2022/5/6,19:00,0,0
�����w�O,�w����,2022/5/6,20:00,0,0
�����w�O,�w����,2022/5/6,21:00,0,0
�����w�O,�w����,2022/5/6,22:00,0,0
�����w�O,�w����,2022/5/6,23:00,0,0
�����w�O,�w����,2022/5/7,0:00,0,0
�����w�O,�w����,2022/5/7,1:00,0,0
�����w�O,�w����,2022/5/7,2:00,0,0
�����w�O,�w����,2022/5/7,3:00,0,0
�����w�O,�w����,2022/5/7,4:00,0,0
�����w�O,�w����,2022/5/7,5:00,0,0
�����w�O,�w����,2022/5/7,6:00,0,0
�����w�O,�w����,2022/5/7,7:00,0,0
�����w�O,�w����,2022/5/7,8:00,0,0
�����w�O,�w����,2022/5/7,9:00,0,0
�����w�O,�w����,2022/5/7,10:00,0,0
�����w�O,�w����,2022/5/7,11:00,0,0
�����w�O,�w����,2022/5/7,12:00,0,0
�����w�O,�w����,2022/5/7,13:00,0,0
�����w�O,�w����,2022/5/7,14:00,0,0
�����w�O,�w����,2022/5/7,15:00,0,0
�����w�O,�w����,2022/5/7,16:00,0,0
�����w�O,�w����,2022/5/7,17:00,0,0
�����w�O,�w����,2022/5/7,18:00,0,0
�����w�O,�w����,2022/5/7,19:00,0,0
�����w�O,�w����,2022/5/7,20:00,0,0
�����w�O,�w����,2022/5/7,21:00,0,0
�����w�O,�w����,2022/5/7,22:00,0,0
�����w�O,�w����,2022/5/7,23:00,0,0
�����w�O,�w����,2022/5/8,0:00,0,0
�����w�O,�w����,2022/5/8,1:00,0,0
�����w�O,�w����,2022/5/8,2:00,0,0
�����w�O,�w����,2022/5/8,3:00,0,0
�����w�O,�w����,2022/5/8,4:00,0,0
�����w�O,�w����,2022/5/8,5:00,0,0
�����w�O,�w����,2022/5/8,6:00,0,0
�����w�O,�w����,2022/5/8,7:00,0,0
�����w�O,�w����,2022/5/8,8:00,0,0
�����w�O,�w����,2022/5/8,9:00,0,0
�����w�O,�w����,2022/5/8,10:00,0,0
�����w�O,�w����,2022/5/8,11:00,0,0
�����w�O,�w����,2022/5/8,12:00,0,0
�����w�O,�w����,2022/5/8,13:00,0,0
�����w�O,�w����,2022/5/8,14:00,0,0
�����w�O,�w����,2022/5/8,15:00,0,0
�����w�O,�w����,2022/5/8,16:00,0,0
�����w�O,�w����,2022/5/8,17:00,0,0
�����w�O,�w����,2022/5/8,18:00,0,0
�����w�O,�w����,2022/5/8,19:00,0,0
�����w�O,�w����,2022/5/8,20:00,0,0
�����w�O,�w����,2022/5/8,21:00,0,0
�����w�O,�w����,2022/5/8,22:00,0,0
�����w�O,�w����,2022/5/8,23:00,0,0
�����w�O,�w����,2022/5/9,0:00,0,0
�����w�O,�w����,2022/5/9,1:00,0,0
�����w�O,�w����,2022/5/9,2:00,0,0
�����w�O,�w����,2022/5/9,3:00,0,0
�����w�O,�w����,2022/5/9,4:00,0,0
�����w�O,�w����,2022/5/9,5:00,0,0
�����w�O,�w����,2022/5/9,6:00,0,0
�����w�O,�w����,2022/5/9,7:00,0,0
�����w�O,�w����,2022/5/9,8:00,0,0
�����w�O,�w����,2022/5/9,9:00,0,0
�����w�O,�w����,2022/5/9,10:00,0,0
�����w�O,�w����,2022/5/9,11:00,0,0
�����w�O,�w����,2022/5/9,12:00,0,0
�����w�O,�w����,2022/5/9,13:00,0,0
�����w�O,�w����,2022/5/9,14:00,0,0
�����w�O,�w����,2022/5/9,15:00,0,0
�����w�O,�w����,2022/5/9,16:00,0,0
�����w�O,�w����,2022/5/9,17:00,0,0
�����w�O,�w����,2022/5/9,18:00,0,0
�����w�O,�w����,2022/5/9,19:00,0,0
�����w�O,�w����,2022/5/9,20:00,0,0
�����w�O,�w����,2022/5/9,21:00,0,0
�����w�O,�w����,2022/5/9,22:00,0,0
�����w�O,�w����,2022/5/9,23:00,0,0
�����w�O,�w����,2022/5/10,0:00,0,0
�����w�O,�w����,2022/5/10,1:00,0,0
�����w�O,�w����,2022/5/10,2:00,0,0
�����w�O,�w����,2022/5/10,3:00,0,0
�����w�O,�w����,2022/5/10,4:00,0,0
�����w�O,�w����,2022/5/10,5:00,0,0
�����w�O,�w����,2022/5/10,6:00,0,0
�����w�O,�w����,2022/5/10,7:00,0,0
�����w�O,�w����,2022/5/10,8:00,0,0
�����w�O,�w����,2022/5/10,9:00,0,0
�����w�O,�w����,2022/5/10,10:00,0,0
�����w�O,�w����,2022/5/10,11:00,0,0
�����w�O,�w����,2022/5/10,12:00,0,0
�����w�O,�w����,2022/5/10,13:00,0,0
�����w�O,�w����,2022/5/10,14:00,0,0
�����w�O,�w����,2022/5/10,15:00,0,0
�����w�O,�w����,2022/5/10,16:00,0,0
�����w�O,�w����,2022/5/10,17:00,0,0
�����w�O,�w����,2022/5/10,18:00,0,0
�����w�O,�w����,2022/5/10,19:00,0,0
�����w�O,�w����,2022/5/10,20:00,0,0
�����w�O,�w����,2022/5/10,21:00,0,0
�����w�O,�w����,2022/5/10,22:00,0,0
�����w�O,�w����,2022/5/10,23:00,0,0
�����w�O,�w����,2022/5/11,0:00,0,0
�����w�O,�w����,2022/5/11,1:00,0,0
�����w�O,�w����,2022/5/11,2:00,0,0
�����w�O,�w����,2022/5/11,3:00,0,0
�����w�O,�w����,2022/5/11,4:00,0,0
�����w�O,�w����,2022/5/11,5:00,0,0
�����w�O,�w����,2022/5/11,6:00,0,0
�����w�O,�w����,2022/5/11,7:00,0,0
�����w�O,�w����,2022/5/11,8:00,0,0
�����w�O,�w����,2022/5/11,9:00,0,0
�����w�O,�w����,2022/5/11,10:00,0,0
�����w�O,�w����,2022/5/11,11:00,0,0
�����w�O,�w����,2022/5/11,12:00,0,0
�����w�O,�w����,2022/5/11,13:00,0,0
�����w�O,�w����,2022/5/11,14:00,0,0
�����w�O,�w����,2022/5/11,15:00,0,0
�����w�O,�w����,2022/5/11,16:00,0,0
�����w�O,�w����,2022/5/11,17:00,0,0
�����w�O,�w����,2022/5/11,18:00,0,0
�����w�O,�w����,2022/5/11,19:00,0,0
�����w�O,�w����,2022/5/11,20:00,0,0
�����w�O,�w����,2022/5/11,21:00,0,0
�����w�O,�w����,2022/5/11,22:00,0,0
�����w�O,�w����,2022/5/11,23:00,0,0
�����w�O,�w����,2022/5/12,0:00,0,0
�����w�O,�w����,2022/5/12,1:00,0,0
�����w�O,�w����,2022/5/12,2:00,0,0
�����w�O,�w����,2022/5/12,3:00,0,0
�����w�O,�w����,2022/5/12,4:00,0,0
�����w�O,�w����,2022/5/12,5:00,0,0
�����w�O,�w����,2022/5/12,6:00,0,0
�����w�O,�w����,2022/5/12,7:00,0,0
�����w�O,�w����,2022/5/12,8:00,0,0
�����w�O,�w����,2022/5/12,9:00,0,0
�����w�O,�w����,2022/5/12,10:00,0,0
�����w�O,�w����,2022/5/12,11:00,0,0
�����w�O,�w����,2022/5/12,12:00,0,0
�����w�O,�w����,2022/5/12,13:00,0,0
�����w�O,�w����,2022/5/12,14:00,0,0
�����w�O,�w����,2022/5/12,15:00,0,0
�����w�O,�w����,2022/5/12,16:00,0,0
�����w�O,�w����,2022/5/12,17:00,0,0
�����w�O,�w����,2022/5/12,18:00,0,0
�����w�O,�w����,2022/5/12,19:00,0,0
�����w�O,�w����,2022/5/12,20:00,0,0
�����w�O,�w����,2022/5/12,21:00,0,0
�����w�O,�w����,2022/5/12,22:00,0,0
�����w�O,�w����,2022/5/12,23:00,0,0
�����w�O,�w����,2022/5/13,0:00,0,0
�����w�O,�w����,2022/5/13,1:00,0,0
�����w�O,�w����,2022/5/13,2:00,0,0
�����w�O,�w����,2022/5/13,3:00,0,0
�����w�O,�w����,2022/5/13,4:00,0,0
�����w�O,�w����,2022/5/13,5:00,0,0
�����w�O,�w����,2022/5/13,6:00,0,0
�����w�O,�w����,2022/5/13,7:00,0,0
�����w�O,�w����,2022/5/13,8:00,0,0
�����w�O,�w����,2022/5/13,9:00,0,0
�����w�O,�w����,2022/5/13,10:00,0,0
�����w�O,�w����,2022/5/13,11:00,0,0
�����w�O,�w����,2022/5/13,12:00,0,0
�����w�O,�w����,2022/5/13,13:00,0,0
�����w�O,�w����,2022/5/13,14:00,0,0
�����w�O,�w����,2022/5/13,15:00,0,0
�����w�O,�w����,2022/5/13,16:00,0,0
�����w�O,�w����,2022/5/13,17:00,0,0
�����w�O,�w����,2022/5/13,18:00,0,0
�����w�O,�w����,2022/5/13,19:00,0,0
�����w�O,�w����,2022/5/13,20:00,0,0
�����w�O,�w����,2022/5/13,21:00,0,0
�����w�O,�w����,2022/5/13,22:00,0,0
�����w�O,�w����,2022/5/13,23:00,0,0
�����w�O,�w����,2022/5/14,0:00,0,0
�����w�O,�w����,2022/5/14,1:00,0,0
�����w�O,�w����,2022/5/14,2:00,0,0
�����w�O,�w����,2022/5/14,3:00,0,0
�����w�O,�w����,2022/5/14,4:00,0,0
�����w�O,�w����,2022/5/14,5:00,0,0
�����w�O,�w����,2022/5/14,6:00,0,0
�����w�O,�w����,2022/5/14,7:00,0,0
�����w�O,�w����,2022/5/14,8:00,0,0
�����w�O,�w����,2022/5/14,9:00,0,0
�����w�O,�w����,2022/5/14,10:00,0,0
�����w�O,�w����,2022/5/14,11:00,0,0
�����w�O,�w����,2022/5/14,12:00,0,0
�����w�O,�w����,2022/5/14,13:00,0,0
�����w�O,�w����,2022/5/14,14:00,0,0
�����w�O,�w����,2022/5/14,15:00,0,0
�����w�O,�w����,2022/5/14,16:00,0,0
�����w�O,�w����,2022/5/14,17:00,0,0
�����w�O,�w����,2022/5/14,18:00,0,0
�����w�O,�w����,2022/5/14,19:00,0,0
�����w�O,�w����,2022/5/14,20:00,0,0
�����w�O,�w����,2022/5/14,21:00,0,0
�����w�O,�w����,2022/5/14,22:00,0,0
�����w�O,�w����,2022/5/14,23:00,0,0
�����w�O,�w����,2022/5/15,0:00,0,0
�����w�O,�w����,2022/5/15,1:00,0,0
�����w�O,�w����,2022/5/15,2:00,0,0
�����w�O,�w����,2022/5/15,3:00,0,0
�����w�O,�w����,2022/5/15,4:00,0,0
�����w�O,�w����,2022/5/15,5:00,0,0
�����w�O,�w����,2022/5/15,6:00,0,0
�����w�O,�w����,2022/5/15,7:00,0,0
�����w�O,�w����,2022/5/15,8:00,0,0
�����w�O,�w����,2022/5/15,9:00,0,0
�����w�O,�w����,2022/5/15,10:00,0,0
�����w�O,�w����,2022/5/15,11:00,0,0
�����w�O,�w����,2022/5/15,12:00,0,0
�����w�O,�w����,2022/5/15,13:00,0,0
�����w�O,�w����,2022/5/15,14:00,0,0
�����w�O,�w����,2022/5/15,15:00,0,0
�����w�O,�w����,2022/5/15,16:00,0,0
�����w�O,�w����,2022/5/15,17:00,0,0
�����w�O,�w����,2022/5/15,18:00,0,0
�����w�O,�w����,2022/5/15,19:00,0,0
�����w�O,�w����,2022/5/15,20:00,0,0
�����w�O,�w����,2022/5/15,21:00,0,0
�����w�O,�w����,2022/5/15,22:00,0,0
�����w�O,�w����,2022/5/15,23:00,0,0
�����w�O,�w����,2022/5/16,0:00,0,0
�����w�O,�w����,2022/5/16,1:00,0,0
�����w�O,�w����,2022/5/16,2:00,0,0
�����w�O,�w����,2022/5/16,3:00,0,0
�����w�O,�w����,2022/5/16,4:00,0,0
�����w�O,�w����,2022/5/16,5:00,0,0
�����w�O,�w����,2022/5/16,6:00,0,0
�����w�O,�w����,2022/5/16,7:00,0,0
�����w�O,�w����,2022/5/16,8:00,0,0
�����w�O,�w����,2022/5/16,9:00,0,0
�����w�O,�w����,2022/5/16,10:00,0,0
�����w�O,�w����,2022/5/16,11:00,0,0
�����w�O,�w����,2022/5/16,12:00,0,0
�����w�O,�w����,2022/5/16,13:00,0,0
�����w�O,�w����,2022/5/16,14:00,0,0
�����w�O,�w����,2022/5/16,15:00,0,0
�����w�O,�w����,2022/5/16,16:00,0,0
�����w�O,�w����,2022/5/16,17:00,0,0
�����w�O,�w����,2022/5/16,18:00,0,0
�����w�O,�w����,2022/5/16,19:00,0,0
�����w�O,�w����,2022/5/16,20:00,0,0
�����w�O,�w����,2022/5/16,21:00,0,0
�����w�O,�w����,2022/5/16,22:00,0,0
�����w�O,�w����,2022/5/16,23:00,0,0
�����w�O,�w����,2022/5/17,0:00,0,0
�����w�O,�w����,2022/5/17,1:00,0,0
�����w�O,�w����,2022/5/17,2:00,0,0
�����w�O,�w����,2022/5/17,3:00,0,0
�����w�O,�w����,2022/5/17,4:00,0,0
�����w�O,�w����,2022/5/17,5:00,0,0
�����w�O,�w����,2022/5/17,6:00,0,0
�����w�O,�w����,2022/5/17,7:00,0,0
�����w�O,�w����,2022/5/17,8:00,0,0
�����w�O,�w����,2022/5/17,9:00,0,0
�����w�O,�w����,2022/5/17,10:00,0,0
�����w�O,�w����,2022/5/17,11:00,0,0
�����w�O,�w����,2022/5/17,12:00,0,0
�����w�O,�w����,2022/5/17,13:00,0,0
�����w�O,�w����,2022/5/17,14:00,0,0
�����w�O,�w����,2022/5/17,15:00,0,0
�����w�O,�w����,2022/5/17,16:00,0,0
�����w�O,�w����,2022/5/17,17:00,0,0
�����w�O,�w����,2022/5/17,18:00,0,0
�����w�O,�w����,2022/5/17,19:00,0,0
�����w�O,�w����,2022/5/17,20:00,0,0
�����w�O,�w����,2022/5/17,21:00,0,0
�����w�O,�w����,2022/5/17,22:00,0,0
�����w�O,�w����,2022/5/17,23:00,0,0
�����w�O,�w����,2022/5/18,0:00,0,0
�����w�O,�w����,2022/5/18,1:00,0,0
�����w�O,�w����,2022/5/18,2:00,0,0
�����w�O,�w����,2022/5/18,3:00,0,0
�����w�O,�w����,2022/5/18,4:00,0,0
�����w�O,�w����,2022/5/18,5:00,0,0
�����w�O,�w����,2022/5/18,6:00,0,0
�����w�O,�w����,2022/5/18,7:00,0,0
�����w�O,�w����,2022/5/18,8:00,0,0
�����w�O,�w����,2022/5/18,9:00,0,0
�����w�O,�w����,2022/5/18,10:00,0,0
�����w�O,�w����,2022/5/18,11:00,0,0
�����w�O,�w����,2022/5/18,12:00,0,0
�����w�O,�w����,2022/5/18,13:00,0,0
�����w�O,�w����,2022/5/18,14:00,0,0
�����w�O,�w����,2022/5/18,15:00,0,0
�����w�O,�w����,2022/5/18,16:00,0,0
�����w�O,�w����,2022/5/18,17:00,0,0
�����w�O,�w����,2022/5/18,18:00,0,0
�����w�O,�w����,2022/5/18,19:00,0,0
�����w�O,�w����,2022/5/18,20:00,0,0
�����w�O,�w����,2022/5/18,21:00,0,0
�����w�O,�w����,2022/5/18,22:00,0,0
�����w�O,�w����,2022/5/18,23:00,0,0
�����w�O,�w����,2022/5/19,0:00,0,0
�����w�O,�w����,2022/5/19,1:00,0,0
�����w�O,�w����,2022/5/19,2:00,0,0
�����w�O,�w����,2022/5/19,3:00,0,0
�����w�O,�w����,2022/5/19,4:00,0,0
�����w�O,�w����,2022/5/19,5:00,0,0
�����w�O,�w����,2022/5/19,6:00,0,0
�����w�O,�w����,2022/5/19,7:00,0,0
�����w�O,�w����,2022/5/19,8:00,0,0
�����w�O,�w����,2022/5/19,9:00,0,0
�����w�O,�w����,2022/5/19,10:00,0,0
�����w�O,�w����,2022/5/19,11:00,0,0
�����w�O,�w����,2022/5/19,12:00,0,0
�����w�O,�w����,2022/5/19,13:00,100,91
�����w�O,�w����,2022/5/19,14:00,131,121
�����w�O,�w����,2022/5/19,15:00,113,103
�����w�O,�w����,2022/5/19,16:00,131,121
�����w�O,�w����,2022/5/19,17:00,201,118
�����w�O,�w����,2022/5/19,18:00,171,116
�����w�O,�w����,2022/5/19,19:00,95,118
�����w�O,�w����,2022/5/19,20:00,59,46
�����w�O,�w����,2022/5/19,21:00,42,52
�����w�O,�w����,2022/5/19,22:00,15,23
�����w�O,�w����,2022/5/19,23:00,9,9
�����w�O,�w����,2022/5/20,0:00,2,2
�����w�O,�w����,2022/5/20,1:00,0,0
�����w�O,�w����,2022/5/20,2:00,0,0
�����w�O,�w����,2022/5/20,3:00,0,1
�����w�O,�w����,2022/5/20,4:00,0,0
�����w�O,�w����,2022/5/20,5:00,7,4
�����w�O,�w����,2022/5/20,6:00,82,36
�����w�O,�w����,2022/5/20,7:00,207,193
�����w�O,�w����,2022/5/20,8:00,132,183
�����w�O,�w����,2022/5/20,9:00,91,127
�����w�O,�w����,2022/5/20,10:00,89,132
�����w�O,�w����,2022/5/20,11:00,94,137
�����w�O,�w����,2022/5/20,12:00,123,139
�����w�O,�w����,2022/5/20,13:00,168,140
�����w�O,�w����,2022/5/20,14:00,150,140
�����w�O,�w����,2022/5/20,15:00,152,132
�����w�O,�w����,2022/5/20,16:00,215,135
�����w�O,�w����,2022/5/20,17:00,262,149
�����w�O,�w����,2022/5/20,18:00,225,135
�����w�O,�w����,2022/5/20,19:00,128,141
�����w�O,�w����,2022/5/20,20:00,73,57
�����w�O,�w����,2022/5/20,21:00,64,83
�����w�O,�w����,2022/5/20,22:00,20,47
�����w�O,�w����,2022/5/20,23:00,12,24
�����w�O,�w����,2022/5/21,0:00,2,7
�����w�O,�w����,2022/5/21,1:00,0,0
�����w�O,�w����,2022/5/21,2:00,0,0
�����w�O,�w����,2022/5/21,3:00,2,2
�����w�O,�w����,2022/5/21,4:00,4,1
�����w�O,�w����,2022/5/21,5:00,7,4
�����w�O,�w����,2022/5/21,6:00,56,31
�����w�O,�w����,2022/5/21,7:00,101,124
�����w�O,�w����,2022/5/21,8:00,136,176
�����w�O,�w����,2022/5/21,9:00,152,213
�����w�O,�w����,2022/5/21,10:00,159,217
�����w�O,�w����,2022/5/21,11:00,141,214
�����w�O,�w����,2022/5/21,12:00,192,202
�����w�O,�w����,2022/5/21,13:00,224,178
�����w�O,�w����,2022/5/21,14:00,244,188
�����w�O,�w����,2022/5/21,15:00,219,182
�����w�O,�w����,2022/5/21,16:00,219,222
�����w�O,�w����,2022/5/21,17:00,160,124
�����w�O,�w����,2022/5/21,18:00,183,161
�����w�O,�w����,2022/5/21,19:00,117,119
�����w�O,�w����,2022/5/21,20:00,51,61
�����w�O,�w����,2022/5/21,21:00,62,71
�����w�O,�w����,2022/5/21,22:00,42,45
�����w�O,�w����,2022/5/21,23:00,22,31
�����w�O,�w����,2022/5/22,0:00,0,0
�����w�O,�w����,2022/5/22,1:00,0,0
�����w�O,�w����,2022/5/22,2:00,0,0
�����w�O,�w����,2022/5/22,3:00,0,0
�����w�O,�w����,2022/5/22,4:00,1,1
�����w�O,�w����,2022/5/22,5:00,9,7
�����w�O,�w����,2022/5/22,6:00,26,22
�����w�O,�w����,2022/5/22,7:00,66,67
�����w�O,�w����,2022/5/22,8:00,94,135
�����w�O,�w����,2022/5/22,9:00,157,147
�����w�O,�w����,2022/5/22,10:00,175,207
�����w�O,�w����,2022/5/22,11:00,159,202
�����w�O,�w����,2022/5/22,12:00,184,187
�����w�O,�w����,2022/5/22,13:00,217,175
�����w�O,�w����,2022/5/22,14:00,238,204
�����w�O,�w����,2022/5/22,15:00,279,200
�����w�O,�w����,2022/5/22,16:00,208,167
�����w�O,�w����,2022/5/22,17:00,196,150
�����w�O,�w����,2022/5/22,18:00,136,107
�����w�O,�w����,2022/5/22,19:00,89,101
�����w�O,�w����,2022/5/22,20:00,33,41
�����w�O,�w����,2022/5/22,21:00,37,48
�����w�O,�w����,2022/5/22,22:00,17,28
�����w�O,�w����,2022/5/22,23:00,2,6
�����w�O,�w����,2022/5/23,0:00,1,1
�����w�O,�w����,2022/5/23,1:00,0,0
�����w�O,�w����,2022/5/23,2:00,0,0
�����w�O,�w����,2022/5/23,3:00,1,1
�����w�O,�w����,2022/5/23,4:00,2,1
�����w�O,�w����,2022/5/23,5:00,5,2
�����w�O,�w����,2022/5/23,6:00,96,52
�����w�O,�w����,2022/5/23,7:00,172,169
�����w�O,�w����,2022/5/23,8:00,132,154
�����w�O,�w����,2022/5/23,9:00,118,136
�����w�O,�w����,2022/5/23,10:00,91,106
�����w�O,�w����,2022/5/23,11:00,104,138
�����w�O,�w����,2022/5/23,12:00,126,155
�����w�O,�w����,2022/5/23,13:00,173,123
�����w�O,�w����,2022/5/23,14:00,159,165
�����w�O,�w����,2022/5/23,15:00,144,105
�����w�O,�w����,2022/5/23,16:00,193,120
�����w�O,�w����,2022/5/23,17:00,207,129
�����w�O,�w����,2022/5/23,18:00,206,108
�����w�O,�w����,2022/5/23,19:00,111,126
�����w�O,�w����,2022/5/23,20:00,71,59
�����w�O,�w����,2022/5/23,21:00,33,42
�����w�O,�w����,2022/5/23,22:00,17,24
�����w�O,�w����,2022/5/23,23:00,7,8
�����w�O,�w����,2022/5/24,0:00,1,0
�����w�O,�w����,2022/5/24,1:00,0,0
�����w�O,�w����,2022/5/24,2:00,0,0
�����w�O,�w����,2022/5/24,3:00,0,1
�����w�O,�w����,2022/5/24,4:00,2,1
�����w�O,�w����,2022/5/24,5:00,8,6
�����w�O,�w����,2022/5/24,6:00,76,32
�����w�O,�w����,2022/5/24,7:00,182,180
�����w�O,�w����,2022/5/24,8:00,124,173
�����w�O,�w����,2022/5/24,9:00,80,131
�����w�O,�w����,2022/5/24,10:00,80,108
�����w�O,�w����,2022/5/24,11:00,128,127
�����w�O,�w����,2022/5/24,12:00,110,99
�����w�O,�w����,2022/5/24,13:00,114,116
�����w�O,�w����,2022/5/24,14:00,117,104
�����w�O,�w����,2022/5/24,15:00,155,90
�����w�O,�w����,2022/5/24,16:00,150,105
�����w�O,�w����,2022/5/24,17:00,201,139
�����w�O,�w����,2022/5/24,18:00,188,138
�����w�O,�w����,2022/5/24,19:00,120,123
�����w�O,�w����,2022/5/24,20:00,58,63
�����w�O,�w����,2022/5/24,21:00,47,50
�����w�O,�w����,2022/5/24,22:00,15,23
�����w�O,�w����,2022/5/24,23:00,7,9
�����w�O,�w����,2022/5/25,0:00,0,0
�����w�O,�w����,2022/5/25,1:00,0,0
�����w�O,�w����,2022/5/25,2:00,0,0
�����w�O,�w����,2022/5/25,3:00,1,2
�����w�O,�w����,2022/5/25,4:00,0,1
�����w�O,�w����,2022/5/25,5:00,5,2
�����w�O,�w����,2022/5/25,6:00,86,38
�����w�O,�w����,2022/5/25,7:00,199,155
�����w�O,�w����,2022/5/25,8:00,109,170
�����w�O,�w����,2022/5/25,9:00,83,112
�����w�O,�w����,2022/5/25,10:00,105,114
�����w�O,�w����,2022/5/25,11:00,111,124
�����w�O,�w����,2022/5/25,12:00,137,154
�����w�O,�w����,2022/5/25,13:00,154,105
�����w�O,�w����,2022/5/25,14:00,102,109
�����w�O,�w����,2022/5/25,15:00,178,150
�����w�O,�w����,2022/5/25,16:00,171,129
�����w�O,�w����,2022/5/25,17:00,214,139
�����w�O,�w����,2022/5/25,18:00,164,111
�����w�O,�w����,2022/5/25,19:00,104,101
�����w�O,�w����,2022/5/25,20:00,56,45
�����w�O,�w����,2022/5/25,21:00,37,44
�����w�O,�w����,2022/5/25,22:00,18,29
�����w�O,�w����,2022/5/25,23:00,8,15
�����w�O,�w����,2022/5/26,0:00,1,0
�����w�O,�w����,2022/5/26,1:00,0,0
�����w�O,�w����,2022/5/26,2:00,0,0
�����w�O,�w����,2022/5/26,3:00,0,0
�����w�O,�w����,2022/5/26,4:00,0,1
�����w�O,�w����,2022/5/26,5:00,4,8
�����w�O,�w����,2022/5/26,6:00,96,34
�����w�O,�w����,2022/5/26,7:00,170,176
�����w�O,�w����,2022/5/26,8:00,117,156
�����w�O,�w����,2022/5/26,9:00,87,100
�����w�O,�w����,2022/5/26,10:00,90,104
�����w�O,�w����,2022/5/26,11:00,76,106
�����w�O,�w����,2022/5/26,12:00,93,76
�����w�O,�w����,2022/5/26,13:00,108,91
�����w�O,�w����,2022/5/26,14:00,108,93
�����w�O,�w����,2022/5/26,15:00,112,89
�����w�O,�w����,2022/5/26,16:00,148,100
�����w�O,�w����,2022/5/26,17:00,218,124
�����w�O,�w����,2022/5/26,18:00,226,121
�����w�O,�w����,2022/5/26,19:00,110,151
�����w�O,�w����,2022/5/26,20:00,55,48
�����w�O,�w����,2022/5/26,21:00,44,49
�����w�O,�w����,2022/5/26,22:00,32,44
�����w�O,�w����,2022/5/26,23:00,10,21
�����w�O,�w����,2022/5/27,0:00,7,8
�����w�O,�w����,2022/5/27,1:00,0,0
�����w�O,�w����,2022/5/27,2:00,0,0
�����w�O,�w����,2022/5/27,3:00,0,1
�����w�O,�w����,2022/5/27,4:00,2,2
�����w�O,�w����,2022/5/27,5:00,3,8
�����w�O,�w����,2022/5/27,6:00,109,61
�����w�O,�w����,2022/5/27,7:00,214,189
�����w�O,�w����,2022/5/27,8:00,153,164
�����w�O,�w����,2022/5/27,9:00,103,139
�����w�O,�w����,2022/5/27,10:00,124,141
�����w�O,�w����,2022/5/27,11:00,127,192
�����w�O,�w����,2022/5/27,12:00,180,163
�����w�O,�w����,2022/5/27,13:00,156,125
�����w�O,�w����,2022/5/27,14:00,167,126